Theta_e
320 328 337 336 339 341 342 341 341 341 342 339 337 337 336 335 333 334 334 335 331 329 325 316 307 307 307 307 306 305 305 304
318 323 327 340 340 339 339 342 341 340 337 339 339 338 337 336 335 335 334 333 331 330 325 322 317 309 308 308 306 306 305 305
313 319 326 326 340 341 340 341 341 340 338 337 338 337 336 336 335 335 334 334 333 331 327 325 320 311 309 308 307 306 306 305
312 315 318 324 331 338 340 340 340 341 340 338 337 336 335 334 335 335 334 334 333 331 328 327 323 313 310 308 307 306 306 305
311 312 312 317 323 331 334 338 338 338 339 338 338 336 334 334 335 335 335 333 331 330 329 326 322 315 310 309 308 306 306 304
311 313 313 314 319 322 327 335 336 336 335 336 338 335 334 332 333 335 335 333 331 330 328 326 324 315 312 310 307 306 305 304
309 310 312 314 315 322 328 323 325 331 335 334 335 335 334 332 332 333 333 332 331 329 327 324 322 317 313 310 307 306 304 305
308 306 308 310 312 315 316 323 322 326 329 333 333 334 333 333 332 332 332 331 328 327 324 321 317 315 312 309 307 306 305 306
306 305 305 308 310 312 314 317 318 320 319 323 325 326 326 324 327 329 330 330 329 327 322 320 316 314 310 308 307 306 305 305
306 304 305 307 310 310 311 311 314 315 317 314 317 320 319 318 317 317 319 320 316 321 318 317 314 312 309 308 307 306 305 305
309 306 304 305 308 308 310 310 308 310 312 312 313 315 314 314 316 317 318 317 315 317 315 314 313 310 308 306 305 305 305 305
309 309 304 304 306 307 307 308 307 309 310 310 313 317 315 314 313 315 314 315 313 312 312 312 312 310 307 306 305 304 304 303
306 305 305 304 305 306 306 306 306 308 309 311 311 311 312 312 312 311 311 313 313 312 311 310 311 310 309 308 306 304 304 302
303 303 305 304 306 307 306 306 306 306 308 309 310 311 311 311 310 311 314 313 311 311 310 310 309 309 309 308 308 306 305 303
304 304 305 306 306 307 308 309 309 310 310 309 309 311 311 311 311 312 314 311 312 314 313 310 311 309 308 307 306 305 303 302
306 306 304 305 306 305 305 307 308 309 309 310 311 311 311 311 311 311 312 313 314 314 312 311 310 308 307 306 305 304 302 300
301 301 301 302 302 302 303 304 305 306 307 309 309 309 311 311 311 311 311 312 313 313 312 312 309 308 307 306 305 303 301 300
300 299 299 299 299 300 302 302 302 303 304 304 307 308 308 307 307 309 311 311 312 312 312 311 310 309 308 306 304 302 301 300
298 298 299 300 300 299 299 299 302 303 303 305 306 305 306 306 306 305 308 310 311 311 311 311 310 309 306 305 303 301 300 298
Wind_Speed
21 21 34 42 47 49 53 52 50 51 50 52 51 49 49 47 51 48 45 43 39 39 38 35 34 34 32 30 28 26 24 24
19 21 15 27 38 46 50 55 56 52 50 52 56 57 54 52 52 51 49 48 48 45 43 39 38 37 35 32 30 28 27 26
23 25 21 12 27 38 46 52 55 55 53 52 54 55 56 56 55 52 49 49 47 46 45 41 40 39 37 35 33 34 31 31
26 24 25 21 9 27 41 48 53 53 53 47 47 49 54 53 57 56 54 51 50 51 51 46 44 42 41 39 38 37 37 36
27 29 28 26 23 13 28 43 46 47 52 54 56 56 55 56 58 59 55 51 52 51 47 44 44 42 43 41 40 40 38 40
21 24 27 28 26 23 13 21 39 45 48 52 59 57 56 49 55 58 59 53 54 51 48 44 45 44 43 42 41 41 41 42
20 20 19 20 20 18 17 16 14 24 45 48 56 60 56 53 55 54 57 53 55 53 49 47 46 45 45 42 42 40 41 41
22 22 21 21 24 20 19 18 23 14 18 41 52 57 59 53 51 59 60 60 55 54 49 47 45 43 42 41 38 37 38 39
20 22 22 24 21 23 23 27 29 25 25 23 27 37 42 37 51 59 60 60 55 53 50 46 44 41 39 39 36 36 36 36
19 20 19 17 16 18 22 24 25 23 24 31 24 19 26 22 23 29 41 37 38 46 45 40 39 37 37 39 39 39 38 35
29 28 23 21 17 18 19 22 25 23 21 24 26 24 20 17 20 18 30 32 36 35 35 37 35 34 37 36 35 37 35 31
36 30 23 21 19 19 20 20 21 18 18 19 7 12 16 17 16 16 26 33 26 27 33 34 30 33 35 35 34 34 34 33
35 29 25 22 20 18 20 21 22 18 17 15 14 13 14 11 10 14 11 19 25 23 25 29 29 30 31 31 31 36 37 41
28 24 20 18 12 15 17 18 19 19 19 17 16 13 15 13 11 12 14 13 8 17 24 27 30 27 28 28 28 28 33 31
20 16 10 6 9 10 12 12 10 10 14 15 18 19 17 12 12 15 21 17 17 19 19 26 22 27 25 28 27 27 27 27
4 5 8 9 8 12 12 10 10 10 12 13 14 15 18 18 18 17 18 20 21 18 25 23 24 26 27 27 27 25 24 24
9 9 10 11 14 14 15 14 13 12 14 14 12 13 16 21 20 22 21 22 20 22 20 20 25 26 26 25 24 23 23 23
14 15 15 15 18 16 18 19 19 18 16 18 18 13 14 15 16 21 25 24 24 21 20 18 23 24 24 24 24 24 23 22
18 21 23 23 24 22 21 21 22 21 19 17 21 22 18 17 20 20 23 27 25 24 20 20 19 24 26 25 24 25 23 20
Wind_Direction
5 277 256 258 256 244 239 235 234 235 232 231 230 233 235 238 230 229 229 224 226 224 221 218 218 218 216 213 214 210 215 209
21 14 288 251 255 252 246 239 238 233 232 229 230 231 231 233 232 232 231 229 224 221 221 217 220 221 220 216 213 212 203 207
23 27 18 293 255 262 254 247 241 240 235 237 232 231 234 234 234 234 233 230 229 225 223 224 225 222 220 219 216 207 206 207
27 27 29 23 281 255 260 256 250 240 237 228 226 228 232 234 237 236 232 232 226 224 224 222 224 223 223 220 220 221 212 204
35 32 30 27 23 290 263 257 251 237 232 231 229 230 227 238 239 239 235 227 224 221 224 225 227 225 225 226 223 225 225 216
31 27 21 19 16 22 11 258 258 249 238 227 232 239 238 240 239 237 234 228 224 220 219 221 225 225 228 228 226 225 227 225
1 357 2 7 11 357 324 12 348 257 251 238 227 240 236 231 238 236 232 226 219 216 218 220 222 223 225 225 226 227 225 229
351 350 354 338 329 338 2 333 339 336 278 246 238 237 243 246 243 242 230 223 217 217 218 219 220 220 225 223 224 225 224 228
341 339 339 334 343 339 315 311 317 339 5 312 255 238 235 237 230 234 234 231 225 222 219 219 219 219 220 222 223 224 221 226
331 323 327 328 342 357 359 350 349 328 306 338 332 290 275 264 252 241 239 230 223 222 218 218 220 218 217 220 222 223 218 215
312 312 308 313 308 319 321 329 346 352 341 329 316 351 1 303 287 300 283 267 240 236 222 219 221 217 216 219 217 219 227 230
311 310 296 302 303 309 311 317 327 314 312 345 303 309 337 341 355 335 290 277 262 244 227 217 223 218 215 216 216 218 221 217
306 307 292 293 307 311 308 300 302 312 321 325 353 322 294 285 313 315 323 288 262 260 246 227 224 223 225 228 227 217 220 225
309 307 293 298 329 328 309 299 294 293 303 303 302 326 323 326 326 302 282 283 293 276 246 239 230 229 229 227 229 234 239 237
315 317 316 310 322 346 8 18 15 4 335 299 296 286 292 298 292 279 265 274 282 249 267 241 254 233 233 229 227 230 234 237
316 321 337 328 340 347 347 335 341 330 323 335 310 278 300 290 285 286 283 278 267 263 244 255 243 241 235 229 228 226 225 229
324 328 328 334 341 337 335 328 334 326 321 304 328 326 285 284 281 288 290 281 270 255 255 257 251 244 245 240 232 225 225 230
319 318 323 322 325 317 321 323 320 315 319 308 291 285 300 309 301 285 280 277 265 259 255 255 252 251 252 243 233 229 228 225
310 310 308 304 306 306 308 313 310 309 301 295 292 288 289 300 305 297 279 265 259 253 249 251 248 251 245 243 236 224 226 221